{"data":{"norad_id":40063,"intl_designator":"2014-036C","name":"GONETS-M 10","alt_names":[],"object_type":"PAYLOAD","status":"ACTIVE","operator":null,"country":"CIS","launch_date":"2014-07-03","launch_site_code":"PLMSC","launch_vehicle":null,"mission":null,"orbit_class":"UNKNOWN","rcs_meters":1.7151,"size_class":null,"mass_kg":null,"dimensions":null,"purposes":[],"wikipedia_slug":null,"has_3d_model":false,"image_url":null,"decayed_at":null,"tle_current":{"epoch":"2026-05-25T05:02:50.495424Z","epoch_age_seconds":63755,"freshness":"FRESH","line1":"1 40063U 14036C   26145.21030666  .00000049  00000+0  28420-3 0  9990","line2":"2 40063  82.5105 321.9501 0021679 189.8387 170.2271 12.42944921539393","mean_motion":12.42944921,"eccentricity":0.0021679,"inclination_deg":82.5105,"raan_deg":321.9501,"arg_perigee_deg":189.8387,"mean_anomaly_deg":170.2271,"bstar":0.0002842,"rev_number":53939,"period_min":115.85388665826,"perigee_km":1477.077637012,"apogee_km":1511.2102727763,"semimajor_km":7872.2809548941,"source":"CELESTRAK","updated_at":"2026-05-25T13:37:55.467071Z"}}}